QTR8425 VHHH-OTHH

Flight info

Callsign QTR8425
Flight time N/A
Altitude 34000
Route PECAN V10 SIKOU/K0919S1040 A202 ASSAD/K0920F340 A206 NALAO/N0497F340 A206 LPB B465 CEA A791 JJS/N0495F360 A791 BPL L639 RASKI L301 VAXIM/N0486F380 L301 RAGMA N571 MENSA DCT EGTAG Q576 RORON/N0498F340 M430 TOSNA
Aircraft B77L/H-SDE1E2E3FGHIJ2J3J4J5M1RWXY/LB1D1

Departure

Time 2026-05-06 06:33
Airport Hong Kong International Airport (VHHH)

Arrival

Time N/A
Airport Hamad International Airport (OTHH)
Time Latitude Longitude Altitude Speed Heading
2026-05-06 05:57 22.30076 113.92767 36 ft 0 kts 161°
2026-05-06 06:10 22.30091 113.92762 34 ft 4 kts 167°
2026-05-06 06:11 22.30115 113.92756 35 ft 4 kts 165°
2026-05-06 06:11 22.30142 113.92748 35 ft 4 kts 166°
2026-05-06 06:11 22.30167 113.92744 35 ft 4 kts 194°
2026-05-06 06:11 22.30180 113.92750 34 ft 1 kts 232°
2026-05-06 06:14 22.30173 113.92739 35 ft 3 kts 237°
2026-05-06 06:15 22.30164 113.92721 36 ft 3 kts 241°
2026-05-06 06:15 22.30156 113.92703 36 ft 3 kts 248°
2026-05-06 06:15 22.30149 113.92685 36 ft 3 kts 249°
2026-05-06 06:15 22.30142 113.92666 36 ft 3 kts 249°
2026-05-06 06:16 22.30135 113.92647 36 ft 3 kts 249°
2026-05-06 06:16 22.30132 113.92638 36 ft 3 kts 249°
2026-05-06 06:16 22.30128 113.92625 36 ft 3 kts 251°
2026-05-06 06:17 22.30117 113.92588 36 ft 9 kts 252°
2026-05-06 06:17 22.30096 113.92519 36 ft 10 kts 252°
2026-05-06 06:17 22.30073 113.92450 36 ft 10 kts 250°
2026-05-06 06:17 22.30050 113.92381 36 ft 10 kts 250°
2026-05-06 06:18 22.30028 113.92311 36 ft 10 kts 253°
2026-05-06 06:18 22.30007 113.92242 36 ft 10 kts 251°
2026-05-06 06:18 22.29984 113.92173 36 ft 10 kts 250°
2026-05-06 06:18 22.29975 113.92103 36 ft 10 kts 291°
2026-05-06 06:19 22.30032 113.92065 36 ft 10 kts 338°
2026-05-06 06:19 22.30097 113.92041 36 ft 10 kts 342°
2026-05-06 06:19 22.30137 113.91990 36 ft 10 kts 272°
2026-05-06 06:19 22.30120 113.91918 36 ft 10 kts 253°
2026-05-06 06:20 22.30099 113.91847 36 ft 10 kts 252°
2026-05-06 06:20 22.30077 113.91776 36 ft 10 kts 250°
2026-05-06 06:20 22.30054 113.91706 36 ft 10 kts 250°
2026-05-06 06:20 22.30034 113.91635 36 ft 10 kts 267°
2026-05-06 06:21 22.30078 113.91583 36 ft 10 kts 333°
2026-05-06 06:21 22.30142 113.91553 36 ft 10 kts 339°
2026-05-06 06:21 22.30208 113.91528 36 ft 10 kts 338°
2026-05-06 06:21 22.30274 113.91503 37 ft 10 kts 342°
2026-05-06 06:22 22.30341 113.91479 37 ft 10 kts 341°
2026-05-06 06:22 22.30402 113.91446 35 ft 10 kts 311°
2026-05-06 06:22 22.30405 113.91373 37 ft 10 kts 251°
2026-05-06 06:22 22.30425 113.91305 37 ft 10 kts 320°
2026-05-06 06:23 22.30492 113.91279 37 ft 10 kts 342°
2026-05-06 06:23 22.30559 113.91254 37 ft 10 kts 341°
2026-05-06 06:23 22.30626 113.91230 37 ft 10 kts 341°
2026-05-06 06:23 22.30693 113.91205 37 ft 10 kts 341°
2026-05-06 06:24 22.30760 113.91181 37 ft 10 kts 341°
2026-05-06 06:24 22.30828 113.91156 37 ft 10 kts 341°
2026-05-06 06:24 22.30894 113.91130 37 ft 10 kts 340°
2026-05-06 06:24 22.30961 113.91105 37 ft 10 kts 341°
2026-05-06 06:25 22.31028 113.91080 37 ft 10 kts 341°
2026-05-06 06:25 22.31095 113.91055 37 ft 10 kts 341°
2026-05-06 06:25 22.31229 113.91005 37 ft 10 kts 341°
2026-05-06 06:26 22.31274 113.90954 37 ft 10 kts 275°
2026-05-06 06:26 22.31256 113.90880 37 ft 10 kts 251°
2026-05-06 06:26 22.31233 113.90807 37 ft 10 kts 251°
2026-05-06 06:26 22.31210 113.90734 37 ft 10 kts 251°
2026-05-06 06:27 22.31187 113.90662 37 ft 10 kts 251°
2026-05-06 06:27 22.31163 113.90588 36 ft 11 kts 251°
2026-05-06 06:27 22.31139 113.90512 36 ft 11 kts 250°
2026-05-06 06:27 22.31114 113.90437 36 ft 11 kts 251°
2026-05-06 06:28 22.31089 113.90361 37 ft 11 kts 251°
2026-05-06 06:28 22.31065 113.90285 37 ft 11 kts 251°
2026-05-06 06:28 22.31040 113.90209 37 ft 11 kts 251°
2026-05-06 06:28 22.31016 113.90133 37 ft 11 kts 251°
2026-05-06 06:29 22.30991 113.90057 37 ft 11 kts 251°
2026-05-06 06:29 22.30967 113.89981 37 ft 11 kts 251°
2026-05-06 06:29 22.30942 113.89906 37 ft 11 kts 251°
2026-05-06 06:29 22.30940 113.89829 35 ft 11 kts 303°
2026-05-06 06:30 22.31006 113.89789 34 ft 13 kts 340°
2026-05-06 06:30 22.31073 113.89772 34 ft 8 kts 16°
2026-05-06 06:30 22.31095 113.89810 34 ft 3 kts 70°
2026-05-06 06:30 22.31096 113.89813 34 ft 0 kts 70°
2026-05-06 06:32 22.31103 113.89835 34 ft 18 kts 71°
2026-05-06 06:32 22.31223 113.90211 35 ft 86 kts 71°
2026-05-06 06:32 22.31485 113.91023 36 ft 141 kts 71°
2026-05-06 06:32 22.31857 113.92175 46 ft 181 kts 70°
2026-05-06 06:33 22.32310 113.93449 460 ft 181 kts 69°
2026-05-06 06:33 22.32759 113.94776 897 ft 191 kts 72°
2026-05-06 06:33 22.33182 113.96134 1303 ft 198 kts 75°
2026-05-06 06:33 22.33537 113.97643 1506 ft 217 kts 81°
2026-05-06 06:34 22.33802 113.99338 1672 ft 242 kts 81°
2026-05-06 06:34 22.34089 114.01186 2121 ft 254 kts 81°
2026-05-06 06:34 22.34378 114.03075 2872 ft 250 kts 85°
2026-05-06 06:34 22.34242 114.04877 3757 ft 236 kts 110°
2026-05-06 06:35 22.33548 114.06437 4509 ft 229 kts 129°
2026-05-06 06:35 22.32421 114.07640 5034 ft 230 kts 149°
2026-05-06 06:35 22.30964 114.08393 5402 ft 238 kts 165°
2026-05-06 06:35 22.29317 114.08764 5822 ft 245 kts 179°
2026-05-06 06:36 22.27605 114.08718 6295 ft 249 kts 184°
2026-05-06 06:36 22.25859 114.08690 6850 ft 252 kts 182°
2026-05-06 06:36 22.24093 114.08678 7410 ft 255 kts 182°
2026-05-06 06:36 22.22886 114.08669 7772 ft 261 kts 183°
2026-05-06 06:37 22.21010 114.08651 8076 ft 275 kts 183°
2026-05-06 06:37 22.19061 114.08633 8562 ft 283 kts 183°
2026-05-06 06:37 22.17100 114.08904 9012 ft 292 kts 160°
2026-05-06 06:37 22.15428 114.10185 9545 ft 303 kts 131°
2026-05-06 06:38 22.14345 114.12140 10056 ft 307 kts 118°
2026-05-06 06:38 22.13365 114.14241 10320 ft 323 kts 118°
2026-05-06 06:38 22.12322 114.16474 10476 ft 344 kts 118°
2026-05-06 06:38 22.11226 114.18813 10621 ft 363 kts 118°
2026-05-06 06:39 22.10048 114.21306 10773 ft 383 kts 118°
2026-05-06 06:39 22.08818 114.23897 11120 ft 394 kts 118°
2026-05-06 06:39 22.07389 114.26421 11421 ft 397 kts 133°
2026-05-06 06:39 22.05271 114.28304 11821 ft 394 kts 149°
2026-05-06 06:40 22.02929 114.29980 12264 ft 402 kts 147°
2026-05-06 06:40 22.00675 114.31710 12847 ft 402 kts 148°
2026-05-06 06:40 21.98183 114.33032 13158 ft 403 kts 169°
2026-05-06 06:40 21.95408 114.33205 13669 ft 400 kts 191°
2026-05-06 06:41 21.92739 114.32432 14264 ft 396 kts 205°
2026-05-06 06:41 21.90359 114.30978 14818 ft 392 kts 218°
2026-05-06 06:41 21.88172 114.29125 15221 ft 398 kts 220°
2026-05-06 06:41 21.86042 114.27252 15701 ft 402 kts 221°
2026-05-06 06:42 21.83870 114.25339 16252 ft 404 kts 220°
2026-05-06 06:42 21.81680 114.23431 16810 ft 406 kts 220°
2026-05-06 06:42 21.79465 114.21521 17316 ft 410 kts 220°
2026-05-06 06:42 21.77226 114.19606 17821 ft 413 kts 219°
2026-05-06 06:43 21.74959 114.17677 18279 ft 417 kts 219°
2026-05-06 06:43 21.72675 114.15736 18719 ft 420 kts 219°
2026-05-06 06:43 21.70375 114.13783 19175 ft 422 kts 219°
2026-05-06 06:43 21.68034 114.11796 19618 ft 425 kts 219°
2026-05-06 06:44 21.65736 114.09863 20035 ft 424 kts 217°
2026-05-06 06:44 21.63097 114.08304 20312 ft 434 kts 199°
2026-05-06 06:44 21.60150 114.07590 20599 ft 436 kts 193°
2026-05-06 06:44 21.57160 114.06917 20905 ft 441 kts 195°
2026-05-06 06:45 21.54164 114.06168 21372 ft 442 kts 196°
2026-05-06 06:45 21.51171 114.05389 21841 ft 444 kts 196°
2026-05-06 06:45 21.48166 114.04605 22260 ft 446 kts 196°
2026-05-06 06:45 21.45138 114.03811 22650 ft 448 kts 198°
2026-05-06 06:46 21.42251 114.02605 22934 ft 444 kts 213°
2026-05-06 06:46 21.39687 114.00756 23171 ft 447 kts 217°
2026-05-06 06:46 21.37131 113.98837 23514 ft 450 kts 217°
2026-05-06 06:46 21.34543 113.96933 23882 ft 451 kts 216°
2026-05-06 06:47 21.31936 113.95053 24258 ft 453 kts 216°
2026-05-06 06:47 21.29303 113.93181 24591 ft 455 kts 216°
2026-05-06 06:47 21.26651 113.91309 24911 ft 458 kts 216°
2026-05-06 06:47 21.23983 113.89431 25232 ft 460 kts 216°
2026-05-06 06:48 21.21338 113.87569 25551 ft 462 kts 216°
2026-05-06 06:48 21.18642 113.85671 25870 ft 465 kts 216°
2026-05-06 06:48 21.15897 113.83737 26195 ft 467 kts 216°
2026-05-06 06:48 21.13218 113.81849 26528 ft 467 kts 216°
2026-05-06 06:49 21.10676 113.79682 26747 ft 468 kts 227°
2026-05-06 06:49 21.08617 113.76988 27018 ft 468 kts 238°
2026-05-06 06:49 21.07009 113.73965 27359 ft 468 kts 247°
2026-05-06 06:49 21.05892 113.70704 27632 ft 467 kts 252°
2026-05-06 06:50 21.04864 113.67389 27879 ft 471 kts 252°
2026-05-06 06:50 21.03826 113.64050 28175 ft 474 kts 252°
2026-05-06 06:50 21.02772 113.60697 28467 ft 476 kts 252°
2026-05-06 06:50 21.01703 113.57339 28764 ft 478 kts 252°
2026-05-06 06:51 21.00620 113.53972 29046 ft 480 kts 251°
2026-05-06 06:51 20.99526 113.50591 29314 ft 482 kts 251°
2026-05-06 06:51 20.98421 113.47192 29592 ft 484 kts 251°
2026-05-06 06:51 20.97312 113.43787 29871 ft 486 kts 251°
2026-05-06 06:52 20.96197 113.40368 30184 ft 486 kts 251°
2026-05-06 06:52 20.95087 113.36966 30567 ft 484 kts 251°
2026-05-06 06:52 20.93981 113.33577 30985 ft 481 kts 252°
2026-05-06 06:52 20.92880 113.30204 31398 ft 479 kts 252°
2026-05-06 06:53 20.91783 113.26845 31791 ft 478 kts 252°
2026-05-06 06:53 20.90688 113.23493 32146 ft 477 kts 252°
2026-05-06 06:53 20.89595 113.20153 32511 ft 475 kts 252°
2026-05-06 06:53 20.88505 113.16821 32885 ft 474 kts 252°
2026-05-06 06:54 20.87417 113.13499 33263 ft 472 kts 252°
2026-05-06 06:54 20.86334 113.10194 33626 ft 471 kts 252°
2026-05-06 06:54 20.85248 113.06884 33825 ft 474 kts 252°
2026-05-06 06:55 20.83054 113.00199 33910 ft 477 kts 252°
2026-05-06 06:55 20.80869 112.93554 33902 ft 471 kts 252°
2026-05-06 06:56 20.78701 112.86972 33912 ft 469 kts 252°
2026-05-06 06:56 20.76535 112.80405 33913 ft 468 kts 252°
2026-05-06 06:57 20.74366 112.73838 33912 ft 469 kts 252°
2026-05-06 06:57 20.72191 112.67259 33916 ft 470 kts 252°
2026-05-06 06:58 20.70008 112.60667 33913 ft 472 kts 252°
2026-05-06 06:58 20.67815 112.54053 33912 ft 473 kts 252°
2026-05-06 06:59 20.65612 112.47423 33911 ft 474 kts 252°
2026-05-06 06:59 20.63404 112.40785 33908 ft 475 kts 252°
2026-05-06 07:00 20.61189 112.34135 33911 ft 476 kts 252°
2026-05-06 07:00 20.58969 112.27478 33914 ft 476 kts 252°
2026-05-06 07:01 20.56752 112.20821 33905 ft 474 kts 254°
2026-05-06 07:01 20.56078 112.17403 33892 ft 470 kts 268°
2026-05-06 07:01 20.56211 112.13935 33914 ft 468 kts 279°
2026-05-06 07:01 20.56950 112.10560 33906 ft 468 kts 290°
2026-05-06 07:02 20.58302 112.07422 33927 ft 465 kts 296°
2026-05-06 07:02 20.61222 112.01230 33919 ft 469 kts 296°
2026-05-06 07:03 20.64100 111.94957 33914 ft 472 kts 295°
2026-05-06 07:03 20.66955 111.88636 33914 ft 474 kts 295°
2026-05-06 07:04 20.69812 111.82284 33911 ft 475 kts 295°
2026-05-06 07:04 20.72672 111.75925 33902 ft 475 kts 295°
2026-05-06 07:05 20.75531 111.69564 33905 ft 475 kts 295°
2026-05-06 07:05 20.78386 111.63203 33910 ft 474 kts 295°
2026-05-06 07:06 20.81232 111.56855 33910 ft 473 kts 295°
2026-05-06 07:06 20.83106 111.50206 33908 ft 471 kts 273°
2026-05-06 07:07 20.82244 111.43288 33903 ft 473 kts 252°
2026-05-06 07:07 20.79921 111.36697 33909 ft 476 kts 251°
2026-05-06 07:08 20.77624 111.30056 33913 ft 478 kts 252°
2026-05-06 07:08 20.75375 111.23391 33901 ft 480 kts 252°
2026-05-06 07:09 20.73116 111.16658 33900 ft 482 kts 252°
2026-05-06 07:09 20.70850 111.09919 33895 ft 482 kts 252°
2026-05-06 07:10 20.68581 111.03185 33892 ft 482 kts 252°
2026-05-06 07:10 20.66296 110.96412 33895 ft 481 kts 252°
2026-05-06 07:11 20.64044 110.89748 33901 ft 480 kts 252°
2026-05-06 07:11 20.61793 110.83048 33897 ft 479 kts 252°
2026-05-06 07:12 20.59548 110.76355 33898 ft 478 kts 252°
2026-05-06 07:12 20.57305 110.69680 33897 ft 478 kts 252°
2026-05-06 07:13 20.55058 110.63009 33895 ft 477 kts 252°
2026-05-06 07:13 20.52811 110.56344 33879 ft 477 kts 252°
2026-05-06 07:14 20.50125 110.49859 33887 ft 481 kts 243°
2026-05-06 07:14 20.46378 110.43936 33887 ft 484 kts 233°
2026-05-06 07:15 20.42091 110.38402 33889 ft 484 kts 232°
2026-05-06 07:15 20.37809 110.32847 33880 ft 485 kts 233°
2026-05-06 07:16 20.33554 110.27268 33886 ft 485 kts 233°
2026-05-06 07:16 20.29298 110.21684 33884 ft 486 kts 233°
2026-05-06 07:17 20.25078 110.16067 33864 ft 486 kts 233°
2026-05-06 07:17 20.20874 110.10440 33879 ft 485 kts 233°
2026-05-06 07:18 20.16663 110.04817 33867 ft 486 kts 233°
2026-05-06 07:18 20.13133 110.00115 33869 ft 485 kts 233°
2026-05-06 07:19 20.08916 109.94506 33868 ft 485 kts 233°
2026-05-06 07:19 20.04726 109.88938 33869 ft 485 kts 233°
2026-05-06 07:20 20.00509 109.83339 33864 ft 485 kts 233°
2026-05-06 07:20 19.96291 109.77745 33856 ft 485 kts 233°
2026-05-06 07:21 19.92070 109.72150 33856 ft 485 kts 233°
2026-05-06 07:21 19.87843 109.66554 33857 ft 486 kts 233°
2026-05-06 07:22 19.83613 109.60958 33861 ft 486 kts 233°
2026-05-06 07:22 19.79378 109.55361 33880 ft 486 kts 233°
2026-05-06 07:23 19.75140 109.49766 33882 ft 486 kts 233°
2026-05-06 07:23 19.70896 109.44168 33855 ft 487 kts 233°
2026-05-06 07:24 19.66653 109.38575 33875 ft 487 kts 233°
2026-05-06 07:24 19.62400 109.32976 33874 ft 487 kts 233°
2026-05-06 07:25 19.58148 109.27382 33864 ft 487 kts 233°
2026-05-06 07:25 19.53889 109.21783 33867 ft 487 kts 233°
2026-05-06 07:26 19.49620 109.16201 33872 ft 488 kts 232°
2026-05-06 07:26 19.45311 109.10643 33862 ft 488 kts 232°
2026-05-06 07:27 19.41000 109.05087 33873 ft 488 kts 232°
2026-05-06 07:27 19.36692 108.99529 33870 ft 488 kts 232°
2026-05-06 07:28 19.32389 108.93978 33863 ft 488 kts 232°
2026-05-06 07:28 19.25930 108.85655 33869 ft 487 kts 232°
2026-05-06 07:29 19.21626 108.80108 33864 ft 487 kts 232°
2026-05-06 07:29 19.17327 108.74559 33858 ft 488 kts 233°
2026-05-06 07:30 19.13029 108.69012 33858 ft 488 kts 233°
2026-05-06 07:30 19.08727 108.63467 33862 ft 487 kts 233°
2026-05-06 07:31 19.04425 108.57929 33862 ft 488 kts 233°
2026-05-06 07:31 19.00120 108.52391 33861 ft 487 kts 233°
2026-05-06 07:32 18.95816 108.46860 33863 ft 487 kts 232°
2026-05-06 07:32 18.91507 108.41327 33859 ft 487 kts 233°
2026-05-06 07:33 18.87196 108.35797 33862 ft 488 kts 233°
2026-05-06 07:33 18.82883 108.30268 33856 ft 488 kts 233°
2026-05-06 07:34 18.78565 108.24739 33857 ft 488 kts 232°
2026-05-06 07:34 18.74241 108.19207 33857 ft 489 kts 232°
2026-05-06 07:35 18.69914 108.13676 33857 ft 489 kts 232°
2026-05-06 07:35 18.65580 108.08140 33858 ft 489 kts 232°
2026-05-06 07:36 18.61245 108.02609 33857 ft 490 kts 232°